COSMOS 2251 DEB, 34579

Orbit data source: Space-Track

COSMOS 2251 DEB, 34579 is space debris in LEO originally from a launch on Wed, 16 Jun 1993 UTC launched from the Plesetsk Missile And Space Complex (PKMTR). The debris from Iridium 33, an American commercial communications satellite, has been tracked extensively since its accidental collision with the defunct Russian satellite Cosmos 2251 in 2009. This event, occurring at high speed in low Earth orbit (LEO), generated thousands of pieces of space debris, significantly increasing the risk of further collisions. The Iridium 33 debris cloud has impacted space traffic management and orbital debris mitigation strategies, making it a subject of ongoing study in space situational awareness.

Loading next visibility...
Identifier
34579, 1993-036VR
Orbit
LEO
Country
Flag of CISCIS
Related business
Manufacturer
Unknown
Mission
Spacecraft
Bus & Motor
Unknown
Mass
Unknown
Launch date (UTC)
1993-06-16 (33 years ago)
Launch vehicle
Unknown
Launch site
Plesetsk Missile And Space Complex (PKMTR)
Object type
Payload
Rocket body
Debris
Shape & HBR
Unknown shape, 0.1 m
Radar Cross Section
Small (<0.1 m²)

Expand to show TLE details & history
Last TLE update: 7 hours ago

TLE from 7 hours ago
0 COSMOS 2251 DEB
1 34579U 93036VR  26062.16616992  .00001422  00000-0  40829-3 0  9990
2 34579  74.0508  74.1249 0024829 127.3185 350.6689 14.45604346893366
Epoch: 2026-03-03T03:59Z
TLE epoch observation values (Epoch: 2026-03-03T03:59:17.081Z)
Latitude
58.25669°
Longitude
6.00165°
Altitude
732.079 km
Speed
7.504 km/s
True Right ascension
15h 07m 05s
True Declination
58° 06' 07"
Sunlit
Object was in daylight at epoch
Visualization orbit readout
Latitude
Unknown
Longitude
Unknown
Altitude
Unknown
Speed
Unknown
Apparent Right ascension
Unknown
Apparent Declination
Unknown
Sunlit
N/A
Visualization observer readout
Local Sidereal Time
14:46:34
Azimuth
Unknown
Elevation
Unknown
Doppler factor
Unknown
Orbital elements
Apogee altitude
755.321 km
Perigee altitude
719.986 km
Semi-major axis
7,115.791 km
Eccentricity
0.00248
Inclination
74.0508°
RAAN
74.1249°
Arg. of periapsis
127.3185°
True anomaly
350.62263°
Mean anomaly
350.6689°
Eccentric anomaly
350.64578°
Mean motion
3.61583 °/min
Orbital period
99.56 mins
BSTAR
0.00040829
Loading maneuver chart data...
Computing Atmospheric mass density...

Documentation

Showing up to 5 results
|